Location: Igri�s
(42.2144°N, 0.4320°W)
Time: 18:54:53
(UTC+00:00)

FREGAT/IRIS - Pass Details

Date: 13 August 2020
Orbit: 315 x 319 km, 96.9° (Epoch: 20 September)

Event Time Altitude Azimuth Distance (km) Brightness Sun altitude
Exits shadow 20:11:45 - 189° (S) 1,905 5.9 -11.9°
Reaches altitude 10° 20:13:21 10° 200° (SSW) 1,251 5.0 -12.2°
Maximum altitude 20:15:43 28° 263° (W) 661 4.3 -12.6°
Drops below altitude 10° 20:18:05 10° 325° (NW) 1,260 6.3 -12.9°
Sets 20:20:08 0° 338° (NNW) 2,100 7.3 -13.2°
